SB KEPS @ AMSAT $ORB07263.N 2Line Orbital Elements 07263.AMSAT
HR AMSAT ORBITAL ELEMENTS FOR AMATEUR SATELLITES IN NASA FORMAT FROM WA5QGD FORT WORTH,TX September 20, 2007 Send Subscribe/unsubscribe to KEPS at http://www.amsat.org/mailman/listinfo/keps BID: ORB07263.N
DECODE 2-LINE ELSETS WITH THE FOLLOWING KEY: 1 AAAAAU 00 0 0 BBBBB.BBBBBBBB .CCCCCCCC 00000-0 00000-0 0 DDDZ 2 AAAAA EEE.EEEE FFF.FFFF GGGGGGG HHH.HHHH III.IIII JJ.JJJJJJJJKKKKKZ KEY: A-CATALOGNUM B-EPOCHTIME C-DECAY D-ELSETNUM E-INCLINATION F-RAAN G-ECCENTRICITY H-ARGPERIGEE I-MNANOM J-MNMOTION K-ORBITNUM Z-CHECKSUM
TO ALL RADIO AMATEURS BT
AO-07 1 07530U 74089B 07262.63241350 -.00000028 00000-0 10000-3 0 09810 2 07530 101.5072 297.8359 0012192 072.1210 288.1191 12.53572569502950 AO-10 1 14129U 83058B 07262.28299293 -.00000109 00000-0 10000-3 0 04295 2 14129 026.1394 255.6231 6062362 057.4151 347.2987 02.05868626182505 UO-11 1 14781U 84021B 07262.59939313 .00000103 00000-0 21118-4 0 04766 2 14781 098.1857 287.1028 0008380 223.5958 136.4559 14.79579924263698 RS-15 1 23439U 94085A 07262.97168946 -.00000039 00000-0 10000-3 0 01162 2 23439 064.8148 213.6316 0156222 173.7415 186.5506 11.27552668524388 FO-29 1 24278U 96046B 07262.93717785 -.00000024 00000-0 11479-4 0 05980 2 24278 098.5590 209.9010 0350534 197.6639 161.2057 13.52931449547710 SO-33 1 25509U 98061B 07262.84054579 .00000165 00000-0 19380-4 0 00251 2 25509 031.4298 050.5857 0355231 174.9639 185.4693 14.28177251464792 AO-40 1 26609U 00072B 07263.09019277 -.00000112 00000-0 10000-3 0 9398 2 26609 006.5368 119.8770 7953132 005.4785 359.9468 01.25586908 31636 VO-52 1 28650U 05017B 07263.82399785 .00000112 00000-0 20983-4 0 7328 2 28650 097.8234 332.3624 0026164 303.6819 056.1926 14.81357834128574 PO-63 1 29712U 07001D 07263.85784870 .00000349 00000-0 53249-4 0 7489 2 29712 097.9132 321.6550 0014357 173.9520 186.1861 14.79827547 37480 AO-16 1 20439U 90005D 07262.50411609 -.00000005 00000-0 13474-4 0 1356 2 20439 098.2038 251.8978 0009927 267.2994 092.7059 14.31770159922043 LO-19 1 20442U 90005G 07262.52678615 .00000021 00000-0 22947-4 0 00625 2 20442 098.1866 261.1284 0010845 264.6039 095.3916 14.32010226922191 AO-27 1 22825U 93061C 07263.47996511 .00000092 00000-0 52398-4 0 7831 2 22825 098.3426 229.2580 0008219 347.8432 012.2547 14.29217982729107 IO-26 1 22826U 93061D 07263.79085611 -.00000000 00000-0 16227-4 0 4824 2 22826 098.3358 230.5867 0008906 343.2640 016.8250 14.29464476729236 PO-28 1 22829U 93061G 07262.86049090 .00000046 00000-0 33788-4 0 07581 2 22829 098.3249 230.8485 0009070 317.3078 042.7386 14.30166378729349 GO-32 1 25397U 98043D 07262.65379943 .00000051 00000-0 40712-4 0 04071 2 25397 098.4054 305.6908 0000811 005.7481 354.3717 14.23131204477597 MO-46 1 26548U 00057D 07262.44708764 -.00000005 00000-0 17124-4 0 9001 2 26548 064.5551 251.0509 0004001 186.8207 173.2845 14.83173524377513 NO-44 1 26931U 01043C 07263.52171529 -.00000146 00000-0 -24682-4 0 6894 2 26931 067.0510 261.9096 0006735 251.7074 108.3296 14.29494690311723 SO-50 1 27607U 02058C 07263.82750327 -.00000094 00000-0 74006-5 0 4125 2 27607 064.5572 154.6463 0065625 335.6155 024.1837 14.71286411255196 CO-55 1 27844U 03031E 07263.54545093 .00000032 00000-0 35163-4 0 1253 2 27844 098.7206 270.5513 0009718 171.7205 188.4135 14.20532000219010 CO-57 1 27848U 03031J 07263.57826405 .00000010 00000-0 25083-4 0 838 2 27848 098.7196 269.7463 0009530 175.9486 184.1776 14.20348321218996 AO-51 1 28375U 04025K 07262.54371519 .00000006 00000-0 14774-4 0 9159 2 28375 098.1050 296.9648 0083098 257.0570 102.1333 14.40579917169295 CO-56 1 28941U 06005C 07262.89721494 .00007361 25307-5 77678-4 0 05765 2 28941 098.1187 334.7390 0212290 296.8637 061.1011 15.43251507088027 HO-59 1 29484U 06041F 07263.75500079 .00018393 27724-5 11549-3 0 6989 2 29484 098.2722 328.5122 0181714 281.2721 076.7979 15.58047633 55925 NO-61 1 29664U 06055F 07263.54105441 .00039087 11982-4 86705-4 0 4891 2 29664 051.6315 307.3978 0011671 008.4763 351.6439 15.98637582 43373 CP4 1 31122U 07012F 07263.63901640 .00000551 00000-0 13192-3 0 1404 2 31122 098.0782 333.7968 0087023 089.4298 271.6862 14.55034298 22731 CP3 1 31128U 07012M 07262.67040574 -.00000046 00000-0 00000-0 0 01347 2 31128 098.0746 332.0861 0104301 094.0823 267.2316 14.51865227022539 LIBERT 1 31129U 07012N 07263.83258456 .00000339 00000-0 89029-4 0 3794 2 31129 098.0742 333.2152 0103316 089.9878 271.3058 14.51958364 22680 NOAA-10 1 16969U 86073A 07262.79865934 .00000023 00000-0 27565-4 0 08176 2 16969 098.7445 280.0312 0011563 251.4070 108.5868 14.27334152092729 NOAA-11 1 19531U 88089A 07262.82361247 -.00000200 00000-0 -80955-4 0 08457 2 19531 098.8097 350.8036 0012217 118.9480 241.2928 14.14850340979532 NOAA-12 1 21263U 91032A 07262.91843758 -.00000105 00000-0 -25548-4 0 03463 2 21263 098.7591 260.0282 0012288 188.9470 171.1491 14.25493244849747 MET-3/5 1 21655U 91056A 07262.83043966 .00000051 00000-0 10000-3 0 3237 2 21655 082.5544 296.0832 0013268 338.1194 021.9361 13.17012264773868 MET-2/21 1 22782U 93055A 07262.74010054 .00000085 00000-0 63437-4 0 09384 2 22782 082.5507 326.9131 0021829 335.2138 024.7991 13.83617935709590 OKEAN-4 1 23317U 94066A 07263.81953955 .00000167 00000-0 17838-4 0 3768 2 23317 082.5406 207.3091 0020729 300.8162 059.1057 14.82533819698223 NOAA-14 1 23455U 94089A 07262.77575013 -.00000305 00000-0 -13753-3 0 08228 2 23455 098.9800 329.4270 0009389 187.6231 172.4790 14.13724418656001 SICH-1 1 23657U 95046A 07263.79085791 -.00000031 00000-0 -69402-5 0 1760 2 23657 082.5314 348.2959 0022354 290.8334 069.0473 14.81512168650189 NOAA-15 1 25338U 98030A 07262.84482748 -.00000067 00000-0 -10642-4 0 01650 2 25338 098.5391 256.8911 0011610 111.2890 248.9502 14.24664384486168 RESURS 1 25394U 98043A 07262.70512996 -.00000006 00000-0 15338-4 0 07554 2 25394 098.4292 313.4493 0000871 311.8891 048.2214 14.24145518477805 FENGYUN1 1 25730U 99025A 07263.88682046 .00000082 00000-0 73218-4 0 2259 2 25730 098.6966 244.1598 0017427 214.6163 145.3873 14.07604018430931 OKEAN-0 1 25860U 99039A 07262.62474738 .00000024 00000-0 10957-4 0 1623 2 25860 097.7358 260.4849 0001927 071.4962 288.6446 14.73473630439409 NOAA-16 1 26536U 00055A 07262.90073025 -.00000130 00000-0 -45208-4 0 06036 2 26536 099.1282 241.5380 0009646 267.9963 092.0083 14.12451620360473 NOAA-17 1 27453U 02032A 07262.75027487 -.00000112 00000-0 -29954-4 0 06058 2 27453 098.5714 329.7486 0012031 174.5050 185.6273 14.23908870272178 NOAA-18 1 28654U 05018A 07262.77232749 -.00000088 00000-0 -24321-4 0 01308 2 28654 098.8335 202.4890 0014669 004.9853 355.1480 14.11093889120196 HUBBLE 1 20580U 90037B 07262.53880507 .00000313 00000-0 11458-4 0 09751 2 20580 028.4693 294.8455 0003389 024.9382 335.1373 15.00279806754141 UARS 1 21701U 91063B 07262.97967444 .00003727 00000-0 65265-4 0 01918 2 21701 056.9741 262.3453 0092459 019.3928 341.0610 15.48890012880437 PO-34 1 25520U 98064B 07262.97437841 .00000363 00000-0 81604-5 0 08277 2 25520 028.4594 194.3276 0005696 207.6110 152.4175 15.17049310491935 ISS 1 25544U 98067A 07263.80193565 .00008956 00000-0 57987-4 0 152 2 25544 051.6364 330.5281 0010049 030.4213 072.6501 15.76926302505862 OO-38 1 26063U 00004C 07263.63780739 -.00000035 00000-0 82900-5 0 154 2 26063 100.2281 283.8991 0036502 251.3583 108.3624 14.35815102400745 UWE-1 1 28892U 05043C 07262.75045087 .00000124 00000-0 35687-4 0 08533 2 28892 098.1167 157.4584 0017375 173.5066 186.6378 14.59540961101003 CO-58 1 28895U 05043F 07263.27461860 -.00000004 00000-0 88217-5 0 8306 2 28895 098.1188 158.2192 0018074 172.6972 187.4484 14.59584011100961 NCUBE2 1 28897U 05043H 07262.24205220 .00000085 00000-0 27454-4 0 03566 2 28897 098.1188 157.1571 0017109 176.7218 183.4089 14.59748709093096 FCAL 1 29667U 06055J 07263.55700620 .00013672 11210-4 51296-4 0 3369 2 29667 051.6329 312.9392 0013510 004.0557 356.0592 15.91501288 43173 FALCON 1 30776U 07006E 07262.66365084 .00000153 00000-0 14270-4 0 01541 2 30776 035.4345 359.9121 0001161 249.2352 110.8239 15.02765232029272 MAST 1 31126U 07012K 07263.74908655 .00000344 00000-0 88342-4 0 1380 2 31126 098.0740 333.4898 0095779 089.6515 271.5620 14.53365219 22738 CAPE1 1 31130U 07012P 07262.66842284 .00000096 00000-0 32955-4 0 01215 2 31130 098.0750 332.0850 0104105 093.9962 267.3140 14.51885248022327 /EX
participants (1)
-
Ray Hoad